| time (UTC) | temp C | wind direction | speed KPH | gust KPH | rain 1hr cm | rain 24hr cm | rain mn cm | humidity % | barometer mb |
| 20260507001329 | 18 | 351 | 6.4 | 19.3 | 0.00 | 0.00 | 0.00 | 46 | |
| 20260507000825 | 19 | 321 | 4.8 | 17.7 | 0.00 | 0.00 | 0.00 | 45 | |
| 20260507000321 | 20 | 181 | 3.2 | 11.3 | 0.00 | 0.00 | 0.00 | 44 | |
| 20260506235818 | 20 | 264 | 6.4 | 16.1 | 0.00 | 0.00 | 0.00 | 44 | |
| 20260506235314 | 20 | 248 | 3.2 | 9.7 | 0.00 | 0.00 | 0.00 | 43 | |
| 20260506234810 | 20 | 291 | 4.8 | 19.3 | 0.00 | 0.00 | 0.00 | 44 | |
| 20260506234308 | 19 | 136 | 4.8 | 20.9 | 0.00 | 0.00 | 0.00 | 45 | |
| 20260506233806 | 20 | 79 | 14.5 | 25.7 | 0.00 | 0.00 | 0.00 | 43 | |
| 20260506233302 | 20 | 303 | 6.4 | 19.3 | 0.00 | 0.00 | 0.00 | 42 | |
| 20260506232759 | 20 | 210 | 6.4 | 12.9 | 0.00 | 0.00 | 0.00 | 41 | |
| 20260506232254 | 20 | 320 | 1.6 | 19.3 | 0.00 | 0.00 | 0.00 | 42 | |
| 20260506231751 | 20 | 305 | 11.3 | 22.5 | 0.00 | 0.00 | 0.00 | 42 | |
| 20260506231249 | 20 | 306 | 11.3 | 16.1 | 0.00 | 0.00 | 0.00 | 42 | |
| 20260506230745 | 20 | 246 | 4.8 | 16.1 | 0.00 | 0.00 | 0.00 | 41 | |
| 20260506230243 | 20 | 242 | 8.0 | 19.3 | 0.00 | 0.00 | 0.00 | 42 | |
| 20260506225739 | 20 | 359 | 3.2 | 14.5 | 0.00 | 0.00 | 0.00 | 42 | |
| 20260506225236 | 21 | 13 | 3.2 | 16.1 | 0.00 | 0.00 | 0.00 | 41 | |
| 20260506224732 | 21 | 330 | 4.8 | 12.9 | 0.00 | 0.00 | 0.00 | 39 | |
| 20260506224230 | 21 | 279 | 8.0 | 17.7 | 0.00 | 0.00 | 0.00 | 41 | |
| 20260506223726 | 21 | 109 | 1.6 | 14.5 | 0.00 | 0.00 | 0.00 | 40 | |
| 20260506223222 | 21 | 258 | 3.2 | 24.1 | 0.00 | 0.00 | 0.00 | 41 | |
| 20260506222719 | 21 | 355 | 4.8 | 8.0 | 0.00 | 0.00 | 0.00 | 41 | |
| 20260506222214 | 21 | 189 | 4.8 | 11.3 | 0.00 | 0.00 | 0.00 | 40 | |
| 20260506221713 | 21 | 127 | 4.8 | 11.3 | 0.00 | 0.00 | 0.00 | 42 | |
| 20260506221211 | 21 | 302 | 6.4 | 12.9 | 0.00 | 0.00 | 0.00 | 42 | |
| 20260506220708 | 20 | 222 | 4.8 | 16.1 | 0.00 | 0.00 | 0.00 | 42 | |
| 20260506220202 | 21 | 327 | 4.8 | 11.3 | 0.00 | 0.00 | 0.00 | 43 | |
| 20260506215659 | 21 | 220 | 4.8 | 11.3 | 0.00 | 0.00 | 0.00 | 43 | |
| 20260506215154 | 21 | 294 | 4.8 | 17.7 | 0.00 | 0.00 | 0.00 | 43 | |
| 20260506214651 | 22 | 277 | 3.2 | 12.9 | 0.00 | 0.00 | 0.00 | 43 | |
| 20260506214149 | 22 | 235 | 3.2 | 8.0 | 0.00 | 0.00 | 0.00 | 43 | |
| 20260506213647 | 21 | 184 | 8.0 | 17.7 | 0.00 | 0.00 | 0.00 | 43 | |
| 20260506213144 | 22 | 271 | 3.2 | 9.7 | 0.00 | 0.00 | 0.00 | 43 | |
| 20260506212641 | 21 | 215 | 4.8 | 9.7 | 0.00 | 0.00 | 0.00 | 44 | |
| 20260506212136 | 21 | 263 | 3.2 | 14.5 | 0.00 | 0.00 | 0.00 | 45 | |
| 20260506211632 | 21 | 312 | 6.4 | 16.1 | 0.00 | 0.00 | 0.00 | 45 | |
| 20260506211129 | 21 | 20 | 8.0 | 11.3 | 0.00 | 0.00 | 0.00 | 46 | |
| 20260506210626 | 21 | 107 | 6.4 | 12.9 | 0.00 | 0.00 | 0.00 | 46 | |
| 20260506210122 | 21 | 224 | 0.0 | 11.3 | 0.00 | 0.00 | 0.00 | 47 | |
| 20260506205619 | 20 | 302 | 3.2 | 12.9 | 0.00 | 0.00 | 0.00 | 47 | |
| 20260506205114 | 20 | 268 | 6.4 | 29.0 | 0.00 | 0.00 | 0.00 | 48 | |
| 20260506204612 | 20 | 271 | 3.2 | 17.7 | 0.00 | 0.00 | 0.00 | 49 | |
| 20260506204109 | 20 | 273 | 8.0 | 20.9 | 0.00 | 0.00 | 0.00 | 49 | |
| 20260506203607 | 20 | 275 | 0.0 | 25.7 | 0.00 | 0.00 | 0.00 | 50 | |
| 20260506203103 | 20 | 228 | 4.8 | 14.5 | 0.00 | 0.00 | 0.00 | 49 | |
| 20260506202601 | 20 | 252 | 4.8 | 22.5 | 0.00 | 0.00 | 0.00 | 49 | |
| 20260506202057 | 20 | 194 | 6.4 | 16.1 | 0.00 | 0.00 | 0.00 | 49 | |
| 20260506201555 | 20 | 329 | 4.8 | 17.7 | 0.00 | 0.00 | 0.00 | 48 | |
| 20260506201051 | 20 | 251 | 6.4 | 24.1 | 0.00 | 0.00 | 0.00 | 48 | |
| 20260506200547 | 20 | 241 | 12.9 | 24.1 | 0.00 | 0.00 | 0.00 | 47 | |
| 20260506200044 | 20 | 266 | 8.0 | 17.7 | 0.00 | 0.00 | 0.00 | 46 | |
| 20260506195541 | 20 | 242 | 4.8 | 24.1 | 0.00 | 0.00 | 0.00 | 48 | |
| 20260506195037 | 21 | 288 | 4.8 | 14.5 | 0.00 | 0.00 | 0.00 | 48 | |
| 20260506194535 | 21 | 182 | 4.8 | 17.7 | 0.00 | 0.00 | 0.00 | 47 | |
| 20260506194031 | 21 | 226 | 8.0 | 20.9 | 0.00 | 0.00 | 0.00 | 48 | |
| 20260506193529 | 20 | 239 | 14.5 | 29.0 | 0.00 | 0.00 | 0.00 | 49 | |
| 20260506193026 | 21 | 243 | 4.8 | 17.7 | 0.00 | 0.00 | 0.00 | 49 | |
| 20260506192523 | 21 | 23 | 6.4 | 25.7 | 0.00 | 0.00 | 0.00 | 47 | |
| 20260506192019 | 21 | 330 | 4.8 | 12.9 | 0.00 | 0.00 | 0.00 | 47 | |
| 20260506191516 | 21 | 271 | 3.2 | 16.1 | 0.00 | 0.00 | 0.00 | 47 | |
| 20260506191012 | 21 | 346 | 3.2 | 12.9 | 0.00 | 0.00 | 0.00 | 47 | |
| 20260506190509 | 21 | 332 | 1.6 | 16.1 | 0.00 | 0.00 | 0.00 | 47 | |
| 20260506190006 | 21 | 167 | 4.8 | 11.3 | 0.00 | 0.00 | 0.00 | 47 | |
| 20260506185503 | 21 | 40 | 0.0 | 11.3 | 0.00 | 0.00 | 0.00 | 47 | |
| 20260506184959 | 21 | 85 | 1.6 | 12.9 | 0.00 | 0.00 | 0.00 | 46 | |
| 20260506184457 | 20 | 25 | 8.0 | 14.5 | 0.00 | 0.00 | 0.00 | 48 | |
| 20260506183954 | 21 | 162 | 3.2 | 11.3 | 0.00 | 0.00 | 0.00 | 47 | |
| 20260506183449 | 21 | 52 | 4.8 | 17.7 | 0.00 | 0.00 | 0.00 | 47 | |
| 20260506182946 | 20 | 38 | 4.8 | 20.9 | 0.00 | 0.00 | 0.00 | 47 | |
| 20260506182444 | 20 | 308 | 4.8 | 12.9 | 0.00 | 0.00 | 0.00 | 48 | |
| 20260506181941 | 20 | 313 | 9.7 | 12.9 | 0.00 | 0.00 | 0.00 | 48 | |
| 20260506181439 | 20 | 216 | 6.4 | 16.1 | 0.00 | 0.00 | 0.00 | 50 | |
| 20260506180935 | 20 | 206 | 3.2 | 20.9 | 0.00 | 0.00 | 0.00 | 50 | |
| 20260506180432 | 19 | 218 | 4.8 | 17.7 | 0.00 | 0.00 | 0.00 | 51 | |
| 20260506175929 | 20 | 178 | 8.0 | 12.9 | 0.00 | 0.00 | 0.00 | 51 | |
| 20260506175425 | 19 | 283 | 6.4 | 20.9 | 0.00 | 0.00 | 0.00 | 52 | |
| 20260506174922 | 19 | 263 | 4.8 | 20.9 | 0.00 | 0.00 | 0.00 | 52 | |
| 20260506174420 | 18 | 293 | 4.8 | 22.5 | 0.00 | 0.00 | 0.00 | 52 | |
| 20260506173917 | 19 | 236 | 3.2 | 16.1 | 0.00 | 0.00 | 0.00 | 52 | |
| 20260506173414 | 20 | 173 | 8.0 | 16.1 | 0.00 | 0.00 | 0.00 | 51 | |
| 20260506172911 | 18 | 181 | 3.2 | 11.3 | 0.00 | 0.00 | 0.00 | 52 | |
| 20260506172407 | 18 | 225 | 4.8 | 16.1 | 0.00 | 0.00 | 0.00 | 53 | |
| 20260506171905 | 18 | 213 | 4.8 | 20.9 | 0.00 | 0.00 | 0.00 | 54 | |
| 20260506171402 | 18 | 222 | 4.8 | 14.5 | 0.00 | 0.00 | 0.00 | 54 | |
| 20260506170900 | 18 | 214 | 4.8 | 17.7 | 0.00 | 0.00 | 0.00 | 53 | |
| 20260506170356 | 18 | 139 | 3.2 | 9.7 | 0.00 | 0.00 | 0.00 | 54 | |
| 20260506165855 | 17 | 280 | 3.2 | 17.7 | 0.00 | 0.00 | 0.00 | 55 | |
| 20260506165352 | 18 | 251 | 4.8 | 8.0 | 0.00 | 0.00 | 0.00 | 55 | |
| 20260506164848 | 17 | 211 | 8.0 | 14.5 | 0.00 | 0.00 | 0.00 | 55 | |
| 20260506164345 | 17 | 151 | 3.2 | 16.1 | 0.00 | 0.00 | 0.00 | 56 | |
| 20260506163843 | 17 | 287 | 4.8 | 17.7 | 0.00 | 0.00 | 0.00 | 56 | |
| 20260506163337 | 17 | 259 | 4.8 | 12.9 | 0.00 | 0.00 | 0.00 | 56 | |
| 20260506162833 | 17 | 182 | 6.4 | 17.7 | 0.00 | 0.00 | 0.00 | 57 | |
| 20260506162331 | 17 | 319 | 4.8 | 17.7 | 0.00 | 0.00 | 0.00 | 58 | |
| 20260506161828 | 17 | 175 | 3.2 | 11.3 | 0.00 | 0.00 | 0.00 | 58 | |
| 20260506161325 | 16 | 297 | 4.8 | 14.5 | 0.00 | 0.00 | 0.00 | 59 | |
| 20260506160824 | 16 | 182 | 8.0 | 11.3 | 0.00 | 0.00 | 0.00 | 58 | |
| 20260506160320 | 16 | 215 | 3.2 | 38.6 | 0.00 | 0.00 | 0.00 | 58 | |
| 20260506155819 | 16 | 339 | 3.2 | 24.1 | 0.00 | 0.00 | 0.00 | 59 | |
| 20260506155315 | 16 | 170 | 3.2 | 17.7 | 0.00 | 0.00 | 0.00 | 60 | |
| 20260506153427 | 15 | 214 | 6.4 | 24.1 | 0.00 | 0.00 | 0.00 | 61 | |
| 20260506152924 | 15 | 282 | 1.6 | 17.7 | 0.00 | 0.00 | 0.00 | 63 | |
| 20260506152421 | 15 | 34 | 3.2 | 14.5 | 0.00 | 0.00 | 0.00 | 62 | |
| 20260506151920 | 15 | 193 | 11.3 | 19.3 | 0.00 | 0.00 | 0.00 | 63 | |
| 20260506151416 | 15 | 203 | 1.6 | 14.5 | 0.00 | 0.00 | 0.00 | 65 | |
| 20260506150914 | 15 | 171 | 11.3 | 12.9 | 0.00 | 0.00 | 0.00 | 66 | |
| 20260506150410 | 14 | 288 | 4.8 | 16.1 | 0.00 | 0.00 | 0.00 | 65 | |
| 20260506145907 | 14 | 262 | 3.2 | 16.1 | 0.00 | 0.00 | 0.00 | 67 | |
| 20260506145403 | 14 | 231 | 6.4 | 9.7 | 0.00 | 0.00 | 0.00 | 67 | |
| 20260506144901 | 13 | 277 | 4.8 | 16.1 | 0.00 | 0.00 | 0.00 | 68 | |
| 20260506144357 | 13 | 146 | 3.2 | 20.9 | 0.00 | 0.00 | 0.00 | 68 | |
| 20260506143855 | 13 | 189 | 3.2 | 14.5 | 0.00 | 0.00 | 0.00 | 69 | |
| 20260506143352 | 13 | 217 | 3.2 | 11.3 | 0.00 | 0.00 | 0.00 | 71 | |
| 20260506142851 | 12 | 268 | 4.8 | 12.9 | 0.00 | 0.00 | 0.00 | 71 | |
| 20260506142348 | 12 | 169 | 8.0 | 16.1 | 0.00 | 0.00 | 0.00 | 72 | |
| 20260506141846 | 12 | 196 | 9.7 | 17.7 | 0.00 | 0.00 | 0.00 | 73 | |
| 20260506141344 | 12 | 239 | 4.8 | 16.1 | 0.00 | 0.00 | 0.00 | 74 | |
| 20260506140842 | 12 | 291 | 4.8 | 11.3 | 0.00 | 0.00 | 0.00 | 75 | |
| 20260506140338 | 12 | 283 | 4.8 | 12.9 | 0.00 | 0.00 | 0.00 | 76 | |
| 20260506135835 | 12 | 218 | 4.8 | 16.1 | 0.00 | 0.00 | 0.00 | 77 | |
| 20260506135332 | 11 | 262 | 1.6 | 12.9 | 0.00 | 0.00 | 0.00 | 79 | |
| 20260506134828 | 11 | 200 | 9.7 | 20.9 | 0.00 | 0.00 | 0.00 | 78 | |
| 20260506134325 | 11 | 199 | 4.8 | 17.7 | 0.00 | 0.00 | 0.00 | 79 | |
| 20260506133822 | 11 | 202 | 8.0 | 22.5 | 0.00 | 0.00 | 0.00 | 80 | |
| 20260506133319 | 11 | 246 | 3.2 | 17.7 | 0.00 | 0.00 | 0.00 | 80 | |
| 20260506132815 | 11 | 235 | 9.7 | 16.1 | 0.00 | 0.00 | 0.00 | 80 | |
| 20260506132313 | 11 | 255 | 3.2 | 9.7 | 0.00 | 0.00 | 0.00 | 80 | |
| 20260506131811 | 11 | 206 | 8.0 | 19.3 | 0.00 | 0.00 | 0.00 | 80 | |
| 20260506131306 | 11 | 21 | 4.8 | 12.9 | 0.00 | 0.00 | 0.00 | 79 | |
| 20260506130804 | 11 | 225 | 11.3 | 22.5 | 0.00 | 0.00 | 0.00 | 81 | |
| 20260506130300 | 11 | 185 | 6.4 | 11.3 | 0.00 | 0.00 | 0.00 | 81 | |
| 20260506125758 | 11 | 200 | 3.2 | 12.9 | 0.00 | 0.00 | 0.00 | 81 | |
| 20260506125256 | 11 | 264 | 3.2 | 17.7 | 0.00 | 0.00 | 0.00 | 79 | |
| 20260506124754 | 11 | 229 | 6.4 | 12.9 | 0.00 | 0.00 | 0.00 | 78 | |
| 20260506124251 | 12 | 233 | 4.8 | 19.3 | 0.00 | 0.00 | 0.00 | 76 | |
| 20260506123749 | 12 | 163 | 3.2 | 16.1 | 0.00 | 0.00 | 0.00 | 77 | |
| 20260506123247 | 12 | 281 | 6.4 | 16.1 | 0.00 | 0.00 | 0.00 | 76 | |
| 20260506122743 | 12 | 259 | 3.2 | 20.9 | 0.00 | 0.00 | 0.00 | 77 | |
| 20260506122241 | 11 | 332 | 1.6 | 12.9 | 0.00 | 0.00 | 0.00 | 78 | |
| 20260506121739 | 11 | 189 | 4.8 | 12.9 | 0.00 | 0.00 | 0.00 | 79 | |
| 20260506121236 | 11 | 211 | 3.2 | 11.3 | 0.00 | 0.00 | 0.00 | 80 | |
| 20260506120733 | 11 | 180 | 4.8 | 14.5 | 0.00 | 0.00 | 0.00 | 80 | |
| 20260506120231 | 11 | 198 | 3.2 | 11.3 | 0.00 | 0.00 | 0.00 | 81 | |
| 20260506115728 | 11 | 180 | 4.8 | 12.9 | 0.00 | 0.00 | 0.00 | 80 | |
| 20260506115226 | 11 | 257 | 3.2 | 12.9 | 0.00 | 0.00 | 0.00 | 81 | |
| 20260506114724 | 11 | 200 | 4.8 | 12.9 | 0.00 | 0.00 | 0.00 | 81 | |
| 20260506114221 | 11 | 174 | 1.6 | 12.9 | 0.00 | 0.00 | 0.00 | 80 | |
| 20260506113720 | 11 | 1 | 3.2 | 9.7 | 0.00 | 0.00 | 0.00 | 81 | |
| 20260506113217 | 11 | 273 | 1.6 | 12.9 | 0.00 | 0.00 | 0.00 | 80 | |
| 20260506112713 | 11 | 186 | 3.2 | 19.3 | 0.00 | 0.00 | 0.00 | 81 | |
| 20260506112211 | 11 | 208 | 6.4 | 12.9 | 0.00 | 0.00 | 0.00 | 81 | |
| 20260506111708 | 11 | 189 | 6.4 | 12.9 | 0.00 | 0.00 | 0.00 | 81 | |
| 20260506111206 | 11 | 232 | 3.2 | 11.3 | 0.00 | 0.00 | 0.00 | 80 | |
| 20260506110702 | 11 | 267 | 4.8 | 11.3 | 0.00 | 0.00 | 0.00 | 80 | |
| 20260506110200 | 11 | 161 | 4.8 | 11.3 | 0.00 | 0.00 | 0.00 | 79 | |
| 20260506105656 | 11 | 339 | 3.2 | 8.0 | 0.00 | 0.00 | 0.00 | 78 | |
| 20260506105153 | 12 | 185 | 6.4 | 11.3 | 0.00 | 0.00 | 0.00 | 77 | |
| 20260506104652 | 12 | 212 | 4.8 | 24.1 | 0.00 | 0.00 | 0.00 | 75 | |
| 20260506104149 | 12 | 184 | 4.8 | 19.3 | 0.00 | 0.00 | 0.00 | 74 | |
| 20260506103646 | 12 | 229 | 3.2 | 11.3 | 0.00 | 0.00 | 0.00 | 72 | |
| 20260506103143 | 12 | 248 | 6.4 | 12.9 | 0.00 | 0.00 | 0.00 | 70 | |
| 20260506102641 | 12 | 108 | 4.8 | 8.0 | 0.00 | 0.00 | 0.00 | 71 | |
| 20260506102138 | 13 | 193 | 4.8 | 8.0 | 0.00 | 0.00 | 0.00 | 70 | |
| 20260506101635 | 12 | 78 | 8.0 | 11.3 | 0.00 | 0.00 | 0.00 | 71 | |
| 20260506101131 | 12 | 131 | 4.8 | 22.5 | 0.00 | 0.00 | 0.00 | 71 | |
| 20260506100630 | 12 | 192 | 8.0 | 12.9 | 0.00 | 0.00 | 0.00 | 71 | |
| 20260506100127 | 13 | 238 | 3.2 | 12.9 | 0.00 | 0.00 | 0.00 | 71 | |
| 20260506095626 | 13 | 227 | 4.8 | 11.3 | 0.00 | 0.00 | 0.00 | 71 | |
| 20260506095122 | 12 | 154 | 11.3 | 17.7 | 0.00 | 0.00 | 0.00 | 70 | |
| 20260506094620 | 12 | 181 | 3.2 | 11.3 | 0.00 | 0.00 | 0.00 | 71 | |
| 20260506094117 | 12 | 225 | 4.8 | 12.9 | 0.00 | 0.00 | 0.00 | 71 | |
| 20260506093616 | 12 | 261 | 6.4 | 16.1 | 0.00 | 0.00 | 0.00 | 73 | |
| 20260506093113 | 12 | 221 | 3.2 | 24.1 | 0.00 | 0.00 | 0.00 | 74 | |
| 20260506092610 | 12 | 227 | 0.0 | 11.3 | 0.00 | 0.00 | 0.00 | 74 | |
| 20260506092107 | 12 | 181 | 8.0 | 14.5 | 0.00 | 0.00 | 0.00 | 74 | |
| 20260506091606 | 12 | 234 | 3.2 | 11.3 | 0.00 | 0.00 | 0.00 | 75 | |
| 20260506091103 | 12 | 215 | 3.2 | 14.5 | 0.00 | 0.00 | 0.00 | 74 | |
| 20260506090600 | 12 | 308 | 3.2 | 9.7 | 0.00 | 0.00 | 0.00 | 73 | |
| 20260506090056 | 12 | 178 | 4.8 | 12.9 | 0.00 | 0.00 | 0.00 | 73 | |
| 20260506085553 | 12 | 180 | 9.7 | 14.5 | 0.00 | 0.00 | 0.00 | 71 | |
| 20260506085050 | 13 | 284 | 3.2 | 11.3 | 0.00 | 0.00 | 0.00 | 71 | |
| 20260506084547 | 13 | 205 | 4.8 | 14.5 | 0.00 | 0.00 | 0.00 | 69 | |
| 20260506084043 | 13 | 257 | 4.8 | 12.9 | 0.00 | 0.00 | 0.00 | 68 | |
| 20260506083540 | 13 | 174 | 4.8 | 25.7 | 0.00 | 0.00 | 0.00 | 66 | |
| 20260506083037 | 13 | 189 | 4.8 | 11.3 | 0.00 | 0.00 | 0.00 | 67 | |
| 20260506082534 | 13 | 200 | 6.4 | 12.9 | 0.00 | 0.00 | 0.00 | 67 | |
| 20260506082030 | 13 | 240 | 0.0 | 8.0 | 0.00 | 0.00 | 0.00 | 69 | |
| 20260506081528 | 14 | 217 | 6.4 | 11.3 | 0.00 | 0.00 | 0.00 | 66 | |
| 20260506081025 | 13 | 243 | 3.2 | 11.3 | 0.00 | 0.00 | 0.00 | 66 | |
| 20260506080523 | 13 | 241 | 3.2 | 17.7 | 0.00 | 0.00 | 0.00 | 66 | |
| 20260506073506 | 15 | 218 | 0.0 | 16.1 | 0.00 | 0.00 | 0.00 | 59 | |
| 20260506073003 | 15 | 250 | 4.8 | 12.9 | 0.00 | 0.00 | 0.00 | 58 | |
| 20260506072500 | 15 | 139 | 3.2 | 14.5 | 0.00 | 0.00 | 0.00 | 58 | |
| 20260506071958 | 15 | 322 | 0.0 | 22.5 | 0.00 | 0.00 | 0.00 | 59 | |
| 20260506071456 | 15 | 245 | 3.2 | 14.5 | 0.00 | 0.00 | 0.00 | 59 | |
| 20260506070953 | 15 | 159 | 6.4 | 14.5 | 0.00 | 0.00 | 0.00 | 60 | |
| 20260506070450 | 15 | 73 | 3.2 | 9.7 | 0.00 | 0.00 | 0.00 | 61 | |
| 20260506062427 | 15 | 40 | 4.8 | 14.5 | 0.00 | 0.00 | 0.00 | 67 | |
| 20260506061923 | 15 | 255 | 3.2 | 20.9 | 0.00 | 0.00 | 0.00 | 67 | |
| 20260506061420 | 15 | 155 | 4.8 | 11.3 | 0.00 | 0.00 | 0.00 | 66 | |
| 20260506060918 | 15 | 220 | 3.2 | 14.5 | 0.00 | 0.00 | 0.00 | 67 | |
| 20260506060416 | 15 | 139 | 8.0 | 9.7 | 0.00 | 0.00 | 0.00 | 68 | |
| 20260506051348 | 15 | 216 | 4.8 | 22.5 | 0.00 | 0.00 | 0.00 | 67 | |
| 20260506050845 | 15 | 223 | 9.7 | 17.7 | 0.00 | 0.00 | 0.00 | 68 | |
| 20260506050342 | 15 | 241 | 0.0 | 12.9 | 0.00 | 0.00 | 0.00 | 67 | |
| 20260506044833 | 15 | 288 | 9.7 | 20.9 | 0.00 | 0.00 | 0.00 | 65 | |
| 20260506044331 | 16 | 251 | 0.0 | 16.1 | 0.00 | 0.00 | 0.00 | 64 | |
| 20260506043827 | 16 | 340 | 8.0 | 17.7 | 0.00 | 0.00 | 0.00 | 64 | |
| 20260506043325 | 16 | 208 | 8.0 | 16.1 | 0.00 | 0.00 | 0.00 | 65 | |
| 20260506042823 | 16 | 202 | 6.4 | 17.7 | 0.00 | 0.00 | 0.00 | 65 | |
| 20260506042322 | 16 | 234 | 4.8 | 22.5 | 0.00 | 0.00 | 0.00 | 64 | |
| 20260506041820 | 16 | 267 | 4.8 | 11.3 | 0.00 | 0.00 | 0.00 | 63 | |
| 20260506041317 | 16 | 246 | 1.6 | 14.5 | 0.00 | 0.00 | 0.00 | 63 | |
| 20260506040814 | 16 | 221 | 6.4 | 19.3 | 0.00 | 0.00 | 0.00 | 64 | |
| 20260506040311 | 16 | 247 | 8.0 | 19.3 | 0.00 | 0.00 | 0.00 | 64 | |
| 20260506035807 | 17 | 248 | 4.8 | 9.7 | 0.00 | 0.00 | 0.00 | 64 | |
| 20260506035306 | 17 | 255 | 4.8 | 17.7 | 0.00 | 0.00 | 0.00 | 63 | |
| 20260506034802 | 17 | 53 | 4.8 | 11.3 | 0.00 | 0.00 | 0.00 | 62 | |
| 20260506034259 | 17 | 342 | 1.6 | 14.5 | 0.00 | 0.00 | 0.00 | 62 | |
| 20260506033756 | 17 | 208 | 4.8 | 24.1 | 0.00 | 0.00 | 0.00 | 62 | |
| 20260506033253 | 17 | 291 | 6.4 | 9.7 | 0.00 | 0.00 | 0.00 | 62 | |
| 20260506032750 | 17 | 284 | 4.8 | 8.0 | 0.00 | 0.00 | 0.00 | 61 | |
| 20260506032247 | 18 | 210 | 3.2 | 12.9 | 0.00 | 0.00 | 0.00 | 61 | |
| 20260506031743 | 18 | 259 | 4.8 | 27.4 | 0.00 | 0.00 | 0.00 | 60 | |
| 20260506031241 | 18 | 262 | 4.8 | 11.3 | 0.00 | 0.00 | 0.00 | 59 | |
| 20260506030739 | 18 | 168 | 1.6 | 12.9 | 0.00 | 0.00 | 0.00 | 59 | |
| 20260506030236 | 18 | 234 | 6.4 | 16.1 | 0.00 | 0.00 | 0.00 | 58 | |
| 20260506025733 | 18 | 249 | 6.4 | 16.1 | 0.00 | 0.00 | 0.00 | 57 | |
| 20260506025229 | 19 | 211 | 3.2 | 20.9 | 0.00 | 0.00 | 0.00 | 56 | |
| 20260506024726 | 19 | 279 | 6.4 | 16.1 | 0.00 | 0.00 | 0.00 | 55 | |
| 20260506024223 | 20 | 200 | 3.2 | 11.3 | 0.00 | 0.00 | 0.00 | 55 | |
| 20260506023719 | 20 | 252 | 3.2 | 24.1 | 0.00 | 0.00 | 0.00 | 54 | |
| 20260506023216 | 20 | 299 | 4.8 | 14.5 | 0.00 | 0.00 | 0.00 | 53 | |
| 20260506022713 | 20 | 277 | 0.0 | 12.9 | 0.00 | 0.00 | 0.00 | 53 | |
| 20260506022211 | 20 | 198 | 4.8 | 9.7 | 0.00 | 0.00 | 0.00 | 52 | |
| 20260506021709 | 21 | 175 | 3.2 | 17.7 | 0.00 | 0.00 | 0.00 | 51 | |
| 20260506021206 | 21 | 207 | 6.4 | 14.5 | 0.00 | 0.00 | 0.00 | 50 | |
| 20260506020702 | 21 | 306 | 4.8 | 14.5 | 0.00 | 0.00 | 0.00 | 50 | |
| 20260506020200 | 21 | 201 | 9.7 | 17.7 | 0.00 | 0.00 | 0.00 | 48 | |
| 20260506015657 | 22 | 218 | 9.7 | 11.3 | 0.00 | 0.00 | 0.00 | 48 | |
| 20260506015155 | 22 | 245 | 4.8 | 22.5 | 0.00 | 0.00 | 0.00 | 46 | |
| 20260506014652 | 23 | 269 | 8.0 | 11.3 | 0.00 | 0.00 | 0.00 | 45 | |
| 20260506014148 | 23 | 232 | 3.2 | 12.9 | 0.00 | 0.00 | 0.00 | 45 | |
| 20260506013646 | 23 | 357 | 1.6 | 17.7 | 0.00 | 0.00 | 0.00 | 44 | |
| 20260506013143 | 23 | 219 | 4.8 | 12.9 | 0.00 | 0.00 | 0.00 | 43 | |
| 20260506012638 | 23 | 235 | 3.2 | 17.7 | 0.00 | 0.00 | 0.00 | 43 | |
| 20260506012135 | 23 | 280 | 3.2 | 24.1 | 0.00 | 0.00 | 0.00 | 42 | |
| 20260506011633 | 24 | 284 | 4.8 | 17.7 | 0.00 | 0.00 | 0.00 | 42 | |
| 20260506011129 | 25 | 272 | 4.8 | 8.0 | 0.00 | 0.00 | 0.00 | 42 | |
| 20260506010628 | 25 | 70 | 1.6 | 9.7 | 0.00 | 0.00 | 0.00 | 41 | |
| 20260506010125 | 25 | 266 | 3.2 | 6.4 | 0.00 | 0.00 | 0.00 | 40 | |
| 20260506005621 | 25 | 239 | 6.4 | 14.5 | 0.00 | 0.00 | 0.00 | 39 | |
| 20260506005118 | 25 | 214 | 6.4 | 14.5 | 0.00 | 0.00 | 0.00 | 38 | |
| 20260506004615 | 25 | 256 | 4.8 | 20.9 | 0.00 | 0.00 | 0.00 | 38 | |
| 20260506004112 | 25 | 232 | 6.4 | 14.5 | 0.00 | 0.00 | 0.00 | 37 | |
| 20260506003608 | 26 | 211 | 4.8 | 16.1 | 0.00 | 0.00 | 0.00 | 36 | |
| 20260506003104 | 25 | 206 | 3.2 | 8.0 | 0.00 | 0.00 | 0.00 | 36 | |
| 20260506002600 | 25 | 231 | 3.2 | 12.9 | 0.00 | 0.00 | 0.00 | 37 | |
| 20260506002056 | 26 | 238 | 3.2 | 14.5 | 0.00 | 0.00 | 0.00 | 36 |